Regional Weather Roundup
Issued by NWS New Orleans/Baton Rouge, LA

Home | Current Version | Previous Version | Text Only | Print | Product List | Glossary Off
Versions: 1 2 3 4 5 6 7 8 9 10 11 12 13 14 15 16 17 18 19 20 21 22 23 24 25 26 27 28 29 30 31 32 33 34 35 36 37 38 39 40 41 42 43 44 45 46 47 48 49 50

222
ASUS44 KLIX 301505
RWRLIX
NEW ORLEANS REGIONAL WEATHER ROUNDUP
NATIONAL WEATHER SERVICE NEW ORLEANS LA
900 AM CST FRI JAN 30 2015

NOTE: "FAIR" INDICATES FEW OR NO CLOUDS BELOW 12,000 FEET WITH NO
      SIGNIFICANT WEATHER AND/OR OBSTRUCTIONS TO VISIBILITY.
      SKY/WX - SKY CONDITION AND SIGNIFICANT WEATHER.
      TMP - AIR TEMPERATURE.     DP    - DEWPOINT TEMPERATURE.
      RH  - RELATIVE HUMIDITY.   PRES  - PRESSURE.
      HI  - HEAT INDEX.          WCI   - WIND CHILL INDEX.

*  THESE STATIONS ARE NOT NWS OR FAA STATIONS AND ARE NOT UNDER
   NWS QUALITY CONTROL.

LAZ038-040-048-061>063-065>067-069-301600-
SOUTHEAST LOUISIANA

CITY           SKY/WX    TMP DP  RH WIND       PRES   REMARKS
N.O. AUDUBON     N/A     54  41  62 MISG        N/A
N.O. INTL ARPT PTSUNNY   50  39  66 NE20      30.40R
N.O. LAKEFRONT SUNNY     51  40  65 N20       30.40R
N.O. DOWNTOWN* NOT AVBL
SLIDELL        MOSUNNY   49  37  63 N14G24    30.39R
BATON ROUGE    MOSUNNY   47  33  58 NE16G22   30.42R
BOOTHVILLE     SUNNY     54  46  74 N12G20    30.36R
BELLE CHASSE   PTSUNNY   51  38  60 N14G20    30.38R
BOGALUSA*        N/A     47  36  65 NE14      30.43R
GALLIANO*      SUNNY     53  43  67 N13G20    30.37R
NEW ROADS*       N/A     46  34  63 NE12      30.44R
GONZALES*        N/A     47  37  68 MISG      30.41R
HAMMOND*       SUNNY     48  36  61 NE14G20   30.43R
HOUMA*         SUNNY     50  41  71 N17       30.38R
PORT FOURCHON* SUNNY     55  45  67 NE17G23   30.38R

$$

MSZ070-080>082-301600-
SOUTHERN MISSISSIPPI

CITY           SKY/WX    TMP DP  RH WIND       PRES   REMARKS
MCCOMB         SUNNY     44  31  60 N9G20     30.43R
GULFPORT       PTSUNNY   48  36  63 N18G24    30.38R
BILOXI         PTSUNNY   48  37  64 NE17G25   30.38R
PASCAGOULA     MOSUNNY   48  34  58 N15G26    30.38R
STENNIS ARPT*  SUNNY     48  36  61 N14G21    30.39R

$$

COASTAL OBSERVATIONS
LAKE AND NEARSHORE STATIONS

STATION/POSITION TIME  TEMP    WIND        PRES    WAVE
                       AIR SEA DIR/SP/G            HT/PER
                 (UTC) (F)     (DEG/KT/KT) (MB)    (FT/S)
PASCAGOULA       1500   46      10/ 19/ 27 1027.7
WAVELAND YACHT   1500   47      20/ 16/ 21 1027.9
GRAND ISLE       1500   54 63   20/ 15/ 21 1028.1
SOUTHWEST PASS   1500   54 46   30/ 16/ 18 1027.3
NEW CANAL        1500   48 55   30/ 16/ 20 1029.4
SHELL BEACH      1500   49 55   20/ 17/ 23 1028.5

OFFSHORE STATIONS

STATION/POSITION TIME  TEMP    WIND        PRES    WAVE
                       AIR SEA DIR/SP/G            HT/PER
                 (UTC) (F)     (DEG/KT/KT) (MB)    (FT/S)
64 S DAUPHIN ISL 1355   55 68   20/ 21/ 25 1026.8    6/ 6

$$




USA.gov is the U.S. government's official web portal to all federal, state and local government web resources and services.